Location: Houston
(29.7630°N, 95.3630°W)
Time: 18:30:10
(UTC-05:00)

Amateur Radio Satellites - All Passes

Search period start: 29 August 2016 18:00
Search period end: 30 August 2016 18:00
Location: Houston, 29.7630°N, 95.3630°W

Satellite Date Start Highest point End Downlink Frequencies (MHz)
Time Altitude Azimuth
NOAA 18 29 Aug 18:00:53 18:04:42 19° 67° (ENE) 18:08:32 137.9125
BRITE-PL 29 Aug 18:03:06 18:07:38 46° 74° (ENE) 18:12:33 437.365/2234.400
KKS-1 29 Aug 18:15:03 18:18:15 20° 290° (WNW) 18:21:27 437.445
CUBESAT XI-V 29 Aug 18:24:04 18:28:46 71° 101° (ESE) 18:33:28 437.345
HORYU 2 29 Aug 18:28:41 18:32:30 28° 262° (W) 18:36:20 437.375
Cubesat XI-IV 29 Aug 18:30:10 18:35:09 41° 72° (ENE) 18:40:08 437.490
SRMSAT 29 Aug 18:31:10 18:34:05 14° 198° (SSW) 18:37:01 437.500
NOAA 15 29 Aug 18:35:14 18:40:23 62° 74° (ENE) 18:45:35 137.62
CUTE-I 29 Aug 18:41:06 18:46:16 54° 74° (ENE) 18:51:27 437.470
Cosmos 2504 29 Aug 18:43:44 18:50:19 38° 79° (E) 18:56:55 435.465 / 435.565
STARS 29 Aug 18:45:04 18:48:08 19° 290° (WNW) 18:51:11 437.465
DOVE 4 29 Aug 19:01:35 19:06:16 37° 73° (ENE) 19:11:05 437.250
GOMX 1 29 Aug 19:05:35 19:10:34 86° 259° (W) 19:15:56 467.674
BEESAT 2 29 Aug 19:10:22 19:13:52 28° 58° (ENE) 19:17:20 435.950
LilacSat-2 29 Aug 19:16:43 19:20:27 49° 260° (W) 19:24:11 437.200
HO-68 29 Aug 19:22:34 19:27:51 23° 64° (ENE) 19:33:08 435.675
BEESAT 3 29 Aug 19:23:37 19:27:36 86° 243° (WSW) 19:31:32 437.485
Cosmos 2491 29 Aug 19:25:55 19:34:21 55° 279° (W) 19:42:54 435.465 / 435.565
CINEMA 3 29 Aug 19:27:51 19:31:11 18° 70° (ENE) 19:34:30 145.822/145.860
CANX-2 29 Aug 19:36:07 19:38:28 15° 70° (ENE) 19:40:49 2200.000
NOAA 18 29 Aug 19:39:44 19:44:58 43° 260° (W) 19:50:13 137.9125
CUTE 1.7 + AOD 2 29 Aug 19:41:46 19:44:07 15° 70° (ENE) 19:46:28 437.475
BRITE-PL 29 Aug 19:43:56 19:46:23 14° 269° (W) 19:48:55 437.365/2234.400
YUBILEINY 29 Aug 19:53:50 20:00:05 22° 277° (W) 20:06:19 435.215
Cubesat XI-IV 29 Aug 20:11:40 20:15:17 18° 265° (W) 20:18:54 437.490
NOAA 15 29 Aug 20:18:57 20:20:27 11° 267° (W) 20:21:57 137.62
CUTE-I 29 Aug 20:23:58 20:26:31 14° 266° (W) 20:29:06 437.470
PCSat 29 Aug 20:24:47 20:27:18 13° 53° (NE) 20:29:47 145.827
STRAND 1 29 Aug 20:37:33 20:42:41 84° 105° (ESE) 20:47:48 437.568
Cosmos 2504 29 Aug 20:37:33 20:43:20 27° 273° (W) 20:49:11 435.465 / 435.565
DOVE 4 29 Aug 20:40:15 20:43:57 20° 266° (W) 20:47:45 437.250
SEEDS 29 Aug 20:43:36 20:47:41 62° 77° (ENE) 20:51:48 437.485
FUNcube-1 29 Aug 20:48:26 20:50:03 12° 69° (ENE) 20:51:38 145.935
BEESAT 2 29 Aug 20:48:55 20:51:24 16° 251° (WSW) 20:53:53 435.950
AIST 1 29 Aug 20:54:30 20:58:51 61° 83° (E) 21:03:09
UWE-3 29 Aug 20:59:17 21:03:16 30° 73° (ENE) 21:07:11 435.000/436.395/437.385
CINEMA 3 29 Aug 21:03:16 21:07:56 39° 261° (W) 21:12:36 145.822/145.860
CUBEBUG 2 29 Aug 21:05:49 21:10:26 58° 76° (ENE) 21:14:57 437.445
HO-68 29 Aug 21:08:00 21:15:01 56° 258° (WSW) 21:22:04 435.675
AAUSAT CUBESAT 2 29 Aug 21:08:07 21:12:10 63° 77° (ENE) 21:16:14 437.432
ZACube-1 29 Aug 21:09:06 21:12:39 24° 72° (ENE) 21:16:09 437.345
CANX-2 29 Aug 21:10:15 21:14:00 32° 262° (W) 21:17:46 2200.000
CUTE 1.7 + AOD 2 29 Aug 21:15:53 21:19:38 32° 262° (W) 21:23:24 437.475
COMPASS 1 29 Aug 21:18:28 21:22:33 69° 258° (WSW) 21:26:40 437.405
AIST 2 29 Aug 21:40:44 21:44:49 50° 61° (ENE) 21:48:52 435.215
PRISM 29 Aug 21:53:17 21:57:25 57° 101° (E) 22:01:31 437.425
PCSat 29 Aug 22:05:46 22:11:09 70° 248° (WSW) 22:16:30 145.827
SO-50 29 Aug 22:06:54 22:08:53 12° 107° (ESE) 22:10:53 436.795
Oscar 11 29 Aug 22:10:54 22:15:07 57° 259° (W) 22:19:22 145.826/435.025
GONETS M04 29 Aug 22:13:47 22:18:28 15° 70° (ENE) 22:23:06
FUNcube-1 29 Aug 22:21:34 22:25:51 46° 260° (W) 22:30:04 145.935
DELFI C3 29 Aug 22:27:12 22:31:07 84° 78° (ENE) 22:35:03 145.870
ANTELSAT 29 Aug 22:28:37 22:29:15 10° 93° (E) 22:29:55 437.575/2403.000
UWE-3 29 Aug 22:36:29 22:39:39 18° 264° (W) 22:42:48 435.000/436.395/437.385
ZACube-1 29 Aug 22:45:17 22:48:47 22° 263° (W) 22:52:15 437.345
AUBIESAT-1 29 Aug 22:54:53 22:58:25 22° 66° (ENE) 23:01:57 437.475
ESTCUBE 1 29 Aug 22:56:18 22:57:20 11° 67° (ENE) 22:58:21 437.505/2401.250
TIGRISAT 29 Aug 22:56:18 22:59:43 23° 97° (E) 23:03:07 435.000
M-CUBED/EXP-1 PRIME 29 Aug 23:01:56 23:06:05 33° 68° (ENE) 23:10:17 437.505
HUMSAT D 29 Aug 23:09:51 23:13:59 62° 260° (W) 23:18:05 437.325/437.525
RS-15 29 Aug 23:22:17 23:27:28 14° 98° (E) 23:32:43 29.354- 29.394
UNISAT 6 29 Aug 23:25:04 23:29:17 61° 101° (E) 23:33:29 437.425
CUSAT 1 29 Aug 23:28:35 23:31:09 34° 92° (E) 23:34:11 437.405
Cosmos 2499 29 Aug 23:33:46 23:40:22 41° 80° (E) 23:47:08 435.465 / 435.565
CUBEBUG 1 29 Aug 23:35:03 23:38:14 20° 70° (ENE) 23:41:27 437.445
O/OREOS (USA 219) 29 Aug 23:39:29 23:43:13 24° 66° (ENE) 23:46:55 437.305
VELOX 1 29 Aug 23:39:32 23:42:34 18° 70° (ENE) 23:45:37 145.980
SO-50 29 Aug 23:44:07 23:48:53 54° 299° (WNW) 23:53:38 436.795
DX 1 29 Aug 23:49:06 23:51:38 15° 69° (ENE) 23:54:10 434.975-435.025
ANTELSAT 30 Aug 00:02:05 00:06:07 43° 286° (WNW) 00:10:10 437.575/2403.000
DUCHIFAT 1 30 Aug 00:04:59 00:07:41 17° 95° (E) 00:10:22 145.980
GONETS M04 30 Aug 00:07:18 00:16:11 85° 266° (W) 00:25:00
QB50P2 30 Aug 00:10:34 00:14:02 25° 97° (E) 00:17:29 145.880/145.840
50 SAT 30 Aug 00:10:54 00:14:14 39° 75° (ENE) 00:17:35 437.505
JAS-2 30 Aug 00:12:58 00:18:13 21° 95° (E) 00:23:41 435.910
POLYITAN 1 30 Aug 00:13:03 00:16:32 25° 97° (E) 00:19:59 437.675
NANOSAT C BR1 30 Aug 00:19:14 00:22:50 28° 98° (E) 00:26:25 145.865
UKube-1 30 Aug 00:23:28 00:27:14 30° 72° (ENE) 00:31:01 .
AISAT 30 Aug 00:27:10 00:31:35 76° 77° (ENE) 00:36:03 437.250
AUBIESAT-1 30 Aug 00:28:36 00:32:36 29° 258° (WSW) 00:36:39 437.475
ESTCUBE 1 30 Aug 00:29:16 00:33:36 52° 259° (W) 00:38:00 437.505/2401.250
TIGRISAT 30 Aug 00:33:07 00:36:14 20° 289° (WNW) 00:39:19 435.000
PHONESAT 2.4 30 Aug 00:35:30 00:38:30 88° 139° (SE) 00:41:30 2401.200-2431.200
M-CUBED/EXP-1 PRIME 30 Aug 00:37:10 00:40:31 20° 260° (W) 00:43:57 437.505
DANDE 30 Aug 00:48:54 00:51:22 43° 279° (W) 00:53:58 436.750
BUGSAT 1 30 Aug 00:49:31 00:52:46 23° 97° (E) 00:55:57 437.445
QB50P1 30 Aug 01:04:18 01:08:28 67° 284° (WNW) 01:12:37 145.935-145.965
CUBEBUG 1 30 Aug 01:10:38 01:14:18 26° 263° (W) 01:18:01 437.445
POPSAT HIP 1 30 Aug 01:14:39 01:18:43 49° 285° (WNW) 01:22:45 437.405
VELOX 1 30 Aug 01:14:55 01:18:46 29° 262° (W) 01:22:39 145.980
SPROUT 30 Aug 01:15:48 01:20:02 60° 259° (W) 01:24:18 437.525
O/OREOS (USA 219) 30 Aug 01:18:49 01:22:27 23° 259° (WSW) 01:26:05 437.305
DX 1 30 Aug 01:23:30 01:27:29 34° 261° (W) 01:31:28 434.975-435.025
TISAT 1 30 Aug 01:26:16 01:29:59 30° 73° (ENE) 01:33:43 437.305
RS-15 30 Aug 01:26:36 01:37:56 83° 114° (ESE) 01:49:58 29.354- 29.394
Cosmos 2499 30 Aug 01:27:34 01:33:05 25° 273° (W) 01:38:44 435.465 / 435.565
DUCHIFAT 1 30 Aug 01:39:47 01:43:20 27° 287° (WNW) 01:46:51 145.980
QB50P2 30 Aug 01:46:40 01:49:37 19° 289° (WNW) 01:52:34 145.880/145.840
POLYITAN 1 30 Aug 01:49:12 01:52:07 19° 289° (WNW) 01:55:01 437.675
NANOSAT C BR1 30 Aug 01:55:37 01:58:18 17° 290° (WNW) 02:00:59 145.865
JAS-2 30 Aug 01:56:16 02:03:18 62° 286° (WNW) 02:10:56 435.910
UKube-1 30 Aug 02:00:30 02:03:15 17° 264° (W) 02:06:00 .
GONETS M04 30 Aug 02:09:09 02:11:35 11° 281° (W) 02:14:02
SWISSCUBE 30 Aug 02:10:44 02:14:10 20° 69° (ENE) 02:17:36 437.505
PHONESAT 2.4 30 Aug 02:12:59 02:15:06 17° 344° (NNW) 02:17:13 2401.200-2431.200
BUGSAT 1 30 Aug 02:25:01 02:27:57 19° 289° (WNW) 02:30:51 437.445
BEESAT 30 Aug 02:26:57 02:30:56 27° 71° (ENE) 02:34:55 436.000
Gurwin Techsat 1B 30 Aug 02:36:50 02:41:19 27° 97° (E) 02:45:47 435.225
Oscar 19 30 Aug 02:44:45 02:49:59 82° 102° (ESE) 02:55:09 437.125/150
TISAT 1 30 Aug 03:03:02 03:05:37 16° 265° (W) 03:08:12 437.305
ITUPSAT 1 30 Aug 03:15:13 03:19:59 84° 257° (WSW) 03:24:45 437.325
KKS-1 30 Aug 03:32:05 03:34:00 13° 68° (ENE) 03:35:56 437.445
RS-15 30 Aug 03:42:41 03:51:50 26° 316° (NW) 04:01:23 29.354- 29.394
AO-85 30 Aug 03:45:06 03:47:32 13° 107° (ESE) 03:49:55 145.980
SWISSCUBE 30 Aug 03:47:32 03:51:43 30° 262° (W) 03:55:53 437.505
PHONESAT 2.4 30 Aug 03:51:27 03:52:14 11° 1° (N) 03:53:00 2401.200-2431.200
AO-7 30 Aug 03:54:26 04:00:55 25° 98° (E) 04:07:21 29.400- 29.500
MOZHAYETS 4 30 Aug 03:54:28 03:58:29 31° 73° (ENE) 04:02:30
STARS 30 Aug 04:00:52 04:02:41 12° 68° (ENE) 04:04:30 437.465
ITAMSAT 1 30 Aug 04:04:36 04:09:44 60° 101° (ESE) 04:14:50 435.822/435.867
BEESAT 30 Aug 04:04:55 04:08:36 22° 263° (W) 04:12:18 436.000
Gurwin Techsat 1B 30 Aug 04:16:42 04:21:07 27° 290° (WNW) 04:25:32 435.225
YUBILEINY 30 Aug 04:59:42 05:01:31 11° 79° (ENE) 05:03:21 435.215
KKS-1 30 Aug 05:05:50 05:10:07 44° 260° (W) 05:14:25 437.445
CUBESAT XI-V 30 Aug 05:21:35 05:25:40 33° 73° (ENE) 05:29:48 437.345
AO-85 30 Aug 05:22:15 05:27:34 62° 298° (WNW) 05:32:40 145.980
PHONESAT 2.4 30 Aug 05:27:07 05:29:19 18° 17° (NNE) 05:31:32 2401.200-2431.200
MOZHAYETS 4 30 Aug 05:32:35 05:35:38 17° 265° (W) 05:38:39
STARS 30 Aug 05:34:22 05:38:36 44° 260° (W) 05:42:51 437.465
Cosmos 2491 30 Aug 05:43:29 05:52:11 58° 82° (E) 06:00:48 435.465 / 435.565
AO-7 30 Aug 05:45:51 05:53:54 56° 291° (WNW) 06:01:54 29.400- 29.500
ITAMSAT 1 30 Aug 05:46:30 05:48:37 13° 294° (WNW) 05:50:45 435.822/435.867
BRITE-PL 30 Aug 06:14:13 06:19:02 28° 96° (E) 06:23:37 437.365/2234.400
HORYU 2 30 Aug 06:24:45 06:29:11 88° 94° (E) 06:33:35 437.375
NOAA 18 30 Aug 06:30:00 06:32:11 12° 94° (E) 06:34:22 137.9125
YUBILEINY 30 Aug 06:48:03 06:56:53 82° 94° (E) 07:05:44 435.215
Cubesat XI-IV 30 Aug 06:53:51 06:58:18 27° 97° (E) 07:02:45 437.490
LilacSat-2 30 Aug 06:56:21 06:59:29 25° 97° (E) 07:02:36 437.200
NOAA 15 30 Aug 06:56:39 07:01:37 39° 99° (E) 07:06:32 137.62
CUBESAT XI-V 30 Aug 07:00:06 07:03:03 17° 265° (W) 07:06:02 437.345
PHONESAT 2.4 30 Aug 07:02:55 07:05:53 74° 212° (SSW) 07:08:51 2401.200-2431.200
CUTE-I 30 Aug 07:04:28 07:09:20 36° 99° (E) 07:14:09 437.470
DOVE 4 30 Aug 07:08:29 07:11:15 15° 92° (E) 07:13:55 437.250
Cosmos 2504 30 Aug 07:13:43 07:21:34 42° 90° (E) 07:28:56 435.465 / 435.565
ISS 30 Aug 07:13:56 07:17:03 42° 130° (SE) 07:20:10 145.825
GOMX 1 30 Aug 07:14:04 07:19:10 48° 99° (E) 07:23:56 467.674
Cosmos 2491 30 Aug 07:41:47 07:48:16 24° 276° (W) 07:54:47 435.465 / 435.565
STRAND 1 30 Aug 07:47:19 07:52:22 64° 75° (ENE) 07:57:24 437.568
BRITE-PL 30 Aug 07:52:28 07:57:19 30° 289° (WNW) 08:01:59 437.365/2234.400
NOAA 18 30 Aug 08:07:45 08:13:08 60° 286° (WNW) 08:18:28 137.9125
SO-50 30 Aug 08:21:57 08:25:44 25° 56° (NE) 08:29:27 436.795
RS-15 30 Aug 08:26:12 08:32:26 15° 31° (NNE) 08:38:37 29.354- 29.394
LilacSat-2 30 Aug 08:31:24 08:33:31 15° 289° (WNW) 08:35:38 437.200
Cubesat XI-IV 30 Aug 08:33:47 08:38:14 28° 290° (WNW) 08:42:40 437.490
SEEDS 30 Aug 08:34:31 08:37:12 16° 95° (E) 08:39:53 437.485
NOAA 15 30 Aug 08:37:16 08:41:02 20° 292° (WNW) 08:44:48 137.62
PRISM 30 Aug 08:37:50 08:40:36 18° 70° (ENE) 08:43:24 437.425
HO-68 30 Aug 08:42:27 08:49:07 41° 100° (E) 08:55:44 435.675
DOVE 4 30 Aug 08:44:34 08:49:06 38° 287° (WNW) 08:53:21 437.250
CUTE-I 30 Aug 08:45:08 08:49:04 22° 291° (WNW) 08:53:01 437.470
YUBILEINY 30 Aug 08:49:37 08:54:30 16° 290° (WNW) 08:59:25 435.215
ISS 30 Aug 08:51:51 08:53:39 14° 324° (NW) 08:55:27 145.825
GOMX 1 30 Aug 08:53:41 08:56:40 15° 293° (WNW) 08:59:34 467.674
BEESAT 2 30 Aug 08:56:56 08:59:57 21° 110° (ESE) 09:02:58 435.950
AAUSAT CUBESAT 2 30 Aug 08:57:29 09:00:04 16° 95° (E) 09:02:38 437.432
CANX-2 30 Aug 09:00:35 09:04:48 66° 101° (ESE) 09:09:01 2200.000
CUBEBUG 2 30 Aug 09:04:02 09:06:48 17° 95° (E) 09:09:33 437.445
CINEMA 3 30 Aug 09:04:16 09:08:40 85° 106° (ESE) 09:12:52 145.822/145.860
CUTE 1.7 + AOD 2 30 Aug 09:06:06 09:10:19 65° 101° (E) 09:14:33 437.475
COMPASS 1 30 Aug 09:07:30 09:11:08 28° 97° (E) 09:14:46 437.405
Cosmos 2504 30 Aug 09:07:33 09:14:51 32° 282° (WNW) 09:21:48 435.465 / 435.565
BEESAT 3 30 Aug 09:08:13 09:12:05 70° 115° (ESE) 09:15:59 437.485
AIST 1 30 Aug 09:17:16 09:21:26 47° 93° (E) 09:25:38
JUGNU 30 Aug 09:19:49 09:24:01 20° 165° (SSE) 09:28:14 437.505
STRAND 1 30 Aug 09:31:24 09:31:49 10° 267° (W) 09:32:15 437.568
TIGRISAT 30 Aug 09:51:01 09:52:33 12° 68° (ENE) 09:54:04 435.000
SO-50 30 Aug 10:02:28 10:06:03 23° 250° (WSW) 10:09:33 436.795
Oscar 11 30 Aug 10:04:05 10:08:08 39° 99° (E) 10:12:11 145.826/435.025
CUSAT 1 30 Aug 10:04:18 10:10:42 34° 78° (ENE) 10:17:43 437.405
SEEDS 30 Aug 10:09:15 10:12:51 28° 287° (WNW) 10:16:28 437.485
DELFI C3 30 Aug 10:11:41 10:14:18 17° 96° (E) 10:16:56 145.870
PRISM 30 Aug 10:12:19 10:15:41 25° 262° (W) 10:19:05 437.425
FUNcube-1 30 Aug 10:15:29 10:19:29 50° 100° (E) 10:23:30 145.935
UNISAT 6 30 Aug 10:18:05 10:21:56 27° 72° (ENE) 10:25:44 437.425
HO-68 30 Aug 10:30:32 10:36:32 30° 294° (WNW) 10:42:32 435.675
UWE-3 30 Aug 10:30:47 10:34:49 52° 284° (WNW) 10:38:50 435.000/436.395/437.385
AAUSAT CUBESAT 2 30 Aug 10:31:55 10:35:30 29° 287° (WNW) 10:39:06 437.432
BEESAT 2 30 Aug 10:34:33 10:37:36 21° 303° (WNW) 10:40:42 435.950
RS-15 30 Aug 10:36:21 10:48:29 56° 58° (ENE) 11:00:13 29.354- 29.394
ZACube-1 30 Aug 10:38:34 10:42:41 72° 283° (WNW) 10:46:49 437.345
CUBEBUG 2 30 Aug 10:39:57 10:43:23 25° 288° (WNW) 10:46:47 437.445
COMPASS 1 30 Aug 10:43:45 10:46:25 17° 289° (WNW) 10:49:05 437.405
ANTELSAT 30 Aug 10:54:05 10:58:40 73° 77° (ENE) 11:03:12 437.575/2403.000
PCSat 30 Aug 10:58:25 11:03:20 36° 108° (ESE) 11:08:16 145.827
HUMSAT D 30 Aug 10:59:22 11:03:01 30° 98° (E) 11:06:39 437.325/437.525
SRMSAT 30 Aug 11:03:08 11:06:28 15° 163° (SSE) 11:09:48 437.500
GONETS M04 30 Aug 11:06:54 11:13:02 22° 83° (E) 11:19:12
JUGNU 30 Aug 11:07:25 11:12:33 30° 175° (S) 11:17:42 437.505
NANOSAT C BR1 30 Aug 11:08:37 11:09:01 10° 68° (ENE) 11:09:25 145.865
TIGRISAT 30 Aug 11:24:17 11:28:46 50° 260° (W) 11:33:11 435.000
DANDE 30 Aug 11:27:53 11:34:07 64° 83° (E) 11:41:52 436.750
AIST 2 30 Aug 11:32:25 11:36:18 44° 113° (ESE) 11:40:13 435.215
Oscar 11 30 Aug 11:41:55 11:43:52 13° 291° (WNW) 11:45:50 145.826/435.025
DELFI C3 30 Aug 11:45:47 11:49:03 25° 287° (WNW) 11:52:21 145.870
CUSAT 1 30 Aug 11:45:57 11:52:35 41° 268° (W) 11:59:54 437.405
QB50P1 30 Aug 11:50:35 11:54:32 38° 74° (ENE) 11:58:31 145.935-145.965
UNISAT 6 30 Aug 11:55:04 11:58:32 21° 264° (W) 12:01:58 437.425
POPSAT HIP 1 30 Aug 12:00:41 12:04:50 51° 75° (ENE) 12:08:59 437.405
Cosmos 2499 30 Aug 12:02:26 12:10:05 43° 90° (E) 12:17:12 435.465 / 435.565
JAS-2 30 Aug 12:04:14 12:08:30 26° 69° (ENE) 12:12:57 435.910
AUBIESAT-1 30 Aug 12:13:41 12:17:06 31° 102° (ESE) 12:20:17 437.475
M-CUBED/EXP-1 PRIME 30 Aug 12:21:48 12:25:37 56° 105° (ESE) 12:29:07 437.505
AISAT 30 Aug 12:24:02 12:27:34 23° 97° (E) 12:31:05 437.250
DUCHIFAT 1 30 Aug 12:24:37 12:28:52 87° 252° (WSW) 12:33:08 145.980
ESTCUBE 1 30 Aug 12:27:34 12:32:00 51° 100° (E) 12:36:25 437.505/2401.250
QB50P2 30 Aug 12:31:50 12:36:01 55° 259° (W) 12:40:14 145.880/145.840
POLYITAN 1 30 Aug 12:34:20 12:38:32 54° 260° (W) 12:42:44 437.675
HUMSAT D 30 Aug 12:36:03 12:38:19 15° 290° (WNW) 12:40:35 437.325/437.525
NANOSAT C BR1 30 Aug 12:40:08 12:44:15 49° 260° (W) 12:48:23 145.865
PCSat 30 Aug 12:42:29 12:46:44 23° 302° (WNW) 12:51:00 145.827
RS-15 30 Aug 12:49:41 13:00:21 37° 255° (WSW) 13:10:47 29.354- 29.394
SRMSAT 30 Aug 12:50:12 12:55:07 27° 171° (S) 13:00:01 437.500
JUGNU 30 Aug 12:56:00 13:01:09 30° 185° (S) 13:06:17 437.505
GONETS M04 30 Aug 13:00:27 13:09:02 62° 278° (W) 13:17:45
CUBEBUG 1 30 Aug 13:04:19 13:08:46 89° 279° (W) 13:13:08 437.445
BUGSAT 1 30 Aug 13:07:09 13:11:21 65° 259° (W) 13:15:35 437.445
SPROUT 30 Aug 13:07:53 13:11:48 35° 99° (E) 13:15:41 437.525
VELOX 1 30 Aug 13:10:16 13:14:43 84° 100° (E) 13:19:09 145.980
DANDE 30 Aug 13:12:26 13:16:40 18° 269° (W) 13:21:24 436.750
AIST 2 30 Aug 13:13:13 13:14:59 12° 308° (NW) 13:16:45 435.215
DX 1 30 Aug 13:17:10 13:21:31 64° 102° (ESE) 13:25:49 434.975-435.025
50 SAT 30 Aug 13:17:56 13:21:33 63° 284° (WNW) 13:25:11 437.505
QB50P1 30 Aug 13:28:38 13:30:23 12° 266° (W) 13:32:09 145.935-145.965
O/OREOS (USA 219) 30 Aug 13:44:52 13:49:20 84° 107° (ESE) 13:53:51 437.305
JAS-2 30 Aug 13:49:15 13:53:30 26° 264° (W) 13:57:55 435.910
AUBIESAT-1 30 Aug 13:49:42 13:51:09 12° 297° (WNW) 13:52:35 437.475
UKube-1 30 Aug 13:51:45 13:56:01 61° 285° (WNW) 14:00:16 .
Gurwin Techsat 1B 30 Aug 13:52:18 13:56:33 25° 70° (ENE) 14:00:47 435.225
Oscar 19 30 Aug 13:55:26 14:00:31 63° 75° (ENE) 14:05:38 437.125/150
Cosmos 2499 30 Aug 13:56:16 14:03:08 29° 282° (WNW) 14:09:38 435.465 / 435.565
AISAT 30 Aug 14:00:24 14:03:53 23° 289° (WNW) 14:07:21 437.250
AO-85 30 Aug 14:01:18 14:04:22 20° 54° (NE) 14:07:16 145.980
ESTCUBE 1 30 Aug 14:06:56 14:08:17 11° 293° (WNW) 14:09:39 437.505/2401.250
BEESAT 30 Aug 14:35:15 14:36:29 11° 94° (E) 14:37:43 436.000
SRMSAT 30 Aug 14:38:39 14:43:50 32° 181° (S) 14:49:00 437.500
SPROUT 30 Aug 14:45:09 14:47:23 14° 291° (WNW) 14:49:35 437.525
JUGNU 30 Aug 14:45:25 14:49:40 20° 194° (SSW) 14:53:55 437.505
AO-7 30 Aug 14:47:57 14:53:48 22° 60° (ENE) 14:59:37 29.400- 29.500
TISAT 1 30 Aug 14:51:02 14:55:10 62° 284° (WNW) 14:59:17 437.305
ITAMSAT 1 30 Aug 15:16:36 15:21:35 49° 73° (ENE) 15:26:34 435.822/435.867
ITUPSAT 1 30 Aug 15:21:53 15:26:23 40° 99° (E) 15:30:51 437.325
ISS 30 Aug 15:22:39 15:25:41 34° 42° (NE) 15:28:42 145.825
Gurwin Techsat 1B 30 Aug 15:31:39 15:36:17 31° 262° (W) 15:40:57 435.225
Oscar 19 30 Aug 15:39:07 15:40:09 11° 267° (W) 15:41:08 437.125/150
AO-85 30 Aug 15:41:29 15:44:40 23° 250° (WSW) 15:47:44 145.980
SWISSCUBE 30 Aug 15:52:58 15:57:44 75° 283° (WNW) 16:02:29 437.505
MOZHAYETS 4 30 Aug 15:57:18 15:58:59 12° 94° (E) 16:00:40
BEESAT 30 Aug 16:09:50 16:14:28 53° 286° (WNW) 16:19:07 436.000
SRMSAT 30 Aug 16:27:52 16:32:32 24° 191° (S) 16:37:12 437.500
AO-7 30 Aug 16:37:26 16:45:45 70° 255° (WSW) 16:54:05 29.400- 29.500
Cosmos 2491 30 Aug 16:49:34 16:49:54 10° 78° (ENE) 16:50:15 435.465 / 435.565
ITAMSAT 1 30 Aug 16:58:31 17:01:13 14° 265° (W) 17:03:55 435.822/435.867
ISS 30 Aug 17:00:14 17:01:53 13° 235° (SW) 17:03:31 145.825
ITUPSAT 1 30 Aug 17:01:01 17:03:49 16° 292° (WNW) 17:06:38 437.325
KKS-1 30 Aug 17:02:34 17:06:56 55° 101° (E) 17:11:16 437.445
YUBILEINY 30 Aug 17:06:48 17:14:14 30° 76° (ENE) 17:21:33 435.215
HORYU 2 30 Aug 17:16:49 17:20:56 37° 73° (ENE) 17:25:01 437.375
BRITE-PL 30 Aug 17:20:01 17:22:55 16° 66° (ENE) 17:25:55 437.365/2234.400
CUBESAT XI-V 30 Aug 17:25:28 17:27:51 14° 94° (E) 17:30:13 437.345
STARS 30 Aug 17:29:34 17:33:50 51° 100° (E) 17:38:04 437.465
MOZHAYETS 4 30 Aug 17:31:55 17:36:17 46° 285° (WNW) 17:40:40
NOAA 18 30 Aug 17:50:16 17:53:15 15° 65° (ENE) 17:56:13 137.9125
